Regional Weather Roundup
Issued by NWS

Home | Current Version | Previous Version | Graphics & Text | Print | Product List | Glossary On
Versions: 1 2 3 4 5 6 7 8 9 10 11 12 13 14 15 16 17 18 19 20 21 22 23 24 25 26 27 28 29 30 31 32 33 34 35 36 37 38 39 40 41 42 43 44 45 46 47 48 49 50
000
ASUS43 KFSD 222302
RWRSD

WEATHER ROUNDUP FOR SOUTH DAKOTA
NATIONAL WEATHER SERVICE SIOUX FALLS SD
600 PM CDT TUE JUL 22 2014

NOTE: "FAIR" INDICATES FEW OR NO CLOUDS BELOW 12,000 FEET WITH NO
SIGNIFICANT WEATHER AND/OR OBSTRUCTIONS TO VISIBILITY.


SDZ001>005-009-010-012>017-230000-
NORTHWEST AND NORTH CENTRAL SOUTH DAKOTA

CITY           SKY/WX    TMP DP  RH WIND       PRES   REMARKS
BUFFALO          N/A     82  58  43 E17       30.11F
FAITH            N/A     83  58  42 E10       30.19F
MOBRIDGE       SUNNY     83  59  44 E6        30.16F
$$

SDZ012>016-024>037-041>051-057-063-072>074-230000-
SOUTHWEST AND SOUTH CENTRAL SOUTH DAKOTA

CITY           SKY/WX    TMP DP  RH WIND       PRES   REMARKS
RAPID CTY ARPT MOSUNNY   83  62  49 SE14G21   30.19F
PIERRE         SUNNY     88  58  36 E13       30.16F
CUSTER         SUNNY     78  56  46 SE13G20   30.34F
ELLSWORTH AFB  MOSUNNY   84  61  46 SE15      30.20S
PHILIP         SUNNY     87  57  35 SE13      30.16F
PINE RIDGE     SUNNY     85  62  46 E13       30.21F
WINNER         FAIR      89  59  36 N8        30.18F
$$

SDZ004>011-016>023-039-040-230000-
NORTHEAST SOUTH DAKOTA

CITY           SKY/WX    TMP DP  RH WIND       PRES   REMARKS
ABERDEEN       SUNNY     80  60  50 N9        30.19S
WATERTOWN      SUNNY     78  55  44 N14       30.20R
SISSETON         N/A     79  59  50 NE10      30.18R
$$

SDZ017-020-022-023-036>040-048>070-230000-
SOUTHEAST SOUTH DAKOTA

CITY           SKY/WX    TMP DP  RH WIND       PRES   REMARKS
SIOUX FALLS    MOSUNNY   80  60  50 N10       30.17S
HURON          SUNNY     82  58  43 N10       30.17S
CHAMBERLAIN    SUNNY     84  57  38 NE9       30.18S
MITCHELL       SUNNY     85  62  46 MISG      30.17S
YANKTON        SUNNY     82  64  54 N9        30.16R
$$

ABBREVIATIONS USED IN REMARKS
   TC - TEMPERATURE IN CELSIUS
  WCI - WIND CHILL INDEX
   HX - HEAT INDEX
  VSB - VISIBILITY



USA.gov is the U.S. government's official web portal to all federal, state and local government web resources and services.